GFSCGP_sfc_dewp_057.txt.gz
Dewpoint
18 15 15 15 19 17 16 16 14 17 18 19 17 17 17 19 22 22 24 25 28 27 28 31 34 39 41 46 50 52 61 71 70 66 64 62 61 62 61 62 66 64 64 66
14 12 16 16 16 17 17 15 16 20 21 19 16 18 18 19 21 23 25 26 29 30 27 31 35 41 46 47 51 51 53 60 68 68 68 66 65 62 63 63 67 68 67 67
14 12 16 15 15 16 18 17 18 16 21 20 21 9 14 12 21 22 23 26 26 28 30 34 37 43 45 47 50 51 53 54 59 66 67 68 67 67 64 65 66 69 68 68
15 15 14 14 14 17 14 21 20 19 16 7 19 1 15 17 16 19 20 26 26 28 29 37 39 41 43 44 46 50 53 55 52 59 63 68 64 64 64 64 64 66 69 69
13 14 14 14 13 21 13 24 21 20 18 20 12 14 14 20 14 18 23 26 30 34 36 36 36 39 41 43 46 50 53 55 56 57 61 61 66 65 65 64 69 71 70 70
16 17 16 16 22 22 24 20 20 22 20 10 16 16 9 13 16 19 20 26 32 32 34 36 37 39 39 41 43 47 50 55 56 56 58 62 63 65 62 64 64 64 66 68
15 13 22 25 20 22 21 20 11 7 7 4 21 14 14 20 20 18 20 24 31 35 36 35 33 35 38 41 44 45 46 51 54 54 56 59 62 64 65 66 64 66 66 66
17 14 21 25 19 17 20 21 15 10 6 7 15 12 14 21 23 26 28 31 34 35 33 35 37 38 37 41 44 45 46 48 50 53 54 57 61 60 62 65 63 63 63 65
21 20 25 24 24 22 22 22 23 24 22 19 13 16 21 21 23 25 27 30 32 32 35 36 37 38 39 43 46 47 46 48 50 51 53 57 59 63 63 68 69 65 67 64
26 23 24 25 25 25 24 25 25 27 19 13 12 15 14 19 20 21 24 28 31 32 34 37 38 39 41 46 47 49 50 49 50 51 52 53 56 61 63 67 67 67 68 66
28 27 22 27 25 21 23 24 28 27 25 16 12 13 23 23 24 26 27 29 31 33 35 37 37 39 44 46 47 50 52 51 48 49 50 53 55 58 61 62 64 65 66 67
32 30 23 22 23 28 26 25 27 26 25 27 27 20 24 26 27 30 28 27 29 35 36 36 36 39 44 44 43 46 49 52 49 48 49 52 56 59 61 62 63 64 65 66
35 29 22 17 25 29 27 27 28 29 33 26 23 20 26 27 29 30 31 31 33 36 37 37 37 36 42 43 43 43 46 49 53 51 51 53 57 59 61 61 63 64 65 66
36 31 26 20 17 27 28 25 27 29 29 23 23 23 26 29 30 32 34 35 36 37 37 38 37 38 43 45 45 43 43 48 52 56 57 56 58 61 61 62 63 64 65 66
35 30 29 27 27 27 27 27 27 27 27 26 25 24 26 28 31 34 35 36 36 35 35 37 37 41 43 43 45 46 44 48 52 55 57 59 61 62 61 62 64 65 66 66
37 32 32 27 28 28 27 27 27 28 28 28 28 30 31 33 34 33 35 34 34 35 35 36 38 41 42 43 46 47 46 50 53 56 57 60 62 61 62 64 65 65 66 67
35 33 27 19 27 28 23 24 25 26 28 28 27 28 32 32 33 34 34 35 35 34 36 37 40 40 43 46 48 50 50 52 53 56 57 61 63 61 62 64 64 65 66 68
32 30 30 26 28 20 22 29 29 29 30 31 31 31 33 34 36 35 34 36 37 36 37 38 38 43 47 48 49 50 51 52 53 55 57 63 62 61 62 64 64 65 67 68
33 32 30 27 26 25 22 33 34 32 30 33 33 33 35 37 35 32 34 36 38 41 40 39 41 45 47 48 50 51 51 52 52 57 58 62 62 62 63 64 65 66 67 66
34 35 33 31 25 20 26 37 38 37 29 36 35 35 37 33 30 30 34 37 41 41 40 40 42 45 47 49 51 51 51 51 55 57 59 63 63 63 64 64 65 65 66 64
31 31 28 26 28 28 32 37 39 31 33 39 39 39 38 35 34 37 38 41 41 42 42 44 45 46 48 50 51 50 52 54 55 58 61 63 63 64 64 64 64 63 62 60
31 30 30 31 29 25 38 36 33 37 40 41 41 37 36 35 35 36 39 39 40 42 43 44 45 47 48 50 50 51 53 55 56 57 61 62 63 63 63 63 62 61 59 60
30 35 34 34 35 36 38 39 42 42 42 40 37 35 35 36 38 39 38 39 41 42 43 45 46 47 49 50 52 53 54 56 58 59 61 62 62 62 62 61 60 59 59 58
31 35 35 33 33 34 38 40 41 41 39 38 36 35 37 37 38 38 39 41 41 42 43 45 46 48 49 51 52 54 56 58 59 60 61 61 61 61 61 60 61 60 58 57
32 35 35 35 35 38 37 39 39 37 37 36 36 38 39 39 39 40 40 41 42 43 44 46 47 49 51 52 53 56 57 60 60 60 60 60 61 60 59 58 60 60 60 57
37 35 34 34 39 40 39 40 38 37 36 37 39 40 40 40 39 40 41 42 43 43 45 47 49 51 51 52 54 57 60 60 60 58 60 59 58 57 57 57 54 42 45 45

GFSCGP_sfc_dewp_060.txt.gz
Dewpoint
18 14 13 13 16 15 13 12 11 12 15 17 16 15 17 17 19 19 21 22 23 25 27 30 31 37 41 49 54 59 57 64 70 66 64 64 61 63 63 60 66 66 67 66
16 13 12 14 14 15 14 14 13 16 17 18 17 15 16 17 16 18 21 24 24 26 27 29 32 38 44 47 52 54 56 57 61 68 70 67 65 63 63 62 65 67 67 66
15 12 13 14 13 14 15 14 14 15 16 16 16 14 13 13 16 18 21 24 24 25 28 31 34 41 43 45 48 50 54 58 59 60 64 69 69 68 65 63 63 65 68 66
14 14 14 14 13 14 14 14 13 14 14 9 15 4 12 13 14 17 17 19 23 26 30 31 36 38 41 42 44 49 53 56 55 58 59 67 65 66 65 66 66 63 69 68
13 14 15 15 14 13 12 15 16 17 15 15 13 11 8 11 12 16 17 20 25 30 32 32 34 36 39 41 45 49 52 54 55 60 61 56 63 59 62 64 70 71 70 70
17 17 17 16 16 17 18 17 19 19 15 8 10 8 4 11 14 15 16 17 23 29 32 34 33 35 36 40 43 48 51 52 54 55 58 62 62 62 59 63 64 64 65 69
19 17 17 20 18 22 20 20 13 8 10 5 17 14 14 17 17 17 19 21 23 31 32 32 33 35 37 37 42 45 47 50 52 53 55 57 60 64 65 66 61 65 62 62
20 17 17 21 19 17 19 20 16 12 5 5 13 12 16 19 20 22 23 25 28 31 32 33 34 37 36 38 42 45 47 50 51 52 54 56 58 55 58 62 59 58 59 62
20 20 21 22 21 21 19 20 21 23 19 14 12 13 17 20 21 21 20 23 27 31 32 33 34 36 38 41 44 46 48 51 52 52 56 58 57 59 60 67 68 62 67 63
24 23 25 23 24 24 23 22 23 21 17 10 8 12 11 19 21 22 22 25 29 31 31 33 35 37 39 43 44 47 49 50 53 54 53 51 54 57 61 65 68 68 69 68
25 26 23 26 24 22 26 21 23 25 21 17 12 10 23 23 24 25 24 26 28 28 28 31 34 36 37 38 42 46 46 46 49 53 54 53 52 53 56 59 62 66 70 68
27 26 22 20 21 23 23 22 22 25 25 27 26 21 23 25 25 28 28 29 30 32 32 32 34 36 36 36 37 42 45 44 46 50 54 53 53 54 56 58 62 64 64 67
34 29 23 17 22 25 24 22 24 25 28 28 26 19 24 25 27 27 29 29 31 33 33 35 37 37 37 37 38 40 43 43 43 45 52 56 56 57 58 59 62 63 63 66
35 32 27 21 17 26 27 22 23 26 30 25 22 21 24 26 27 28 29 31 32 33 35 36 35 35 37 39 40 42 43 44 44 44 50 55 58 60 59 60 62 63 62 64
33 30 27 25 23 23 22 22 22 24 28 26 24 22 24 27 29 30 32 33 32 32 32 33 34 35 37 39 42 43 43 44 46 45 50 55 58 59 60 60 61 63 62 62
37 32 29 27 24 24 23 24 24 24 24 24 24 25 26 28 29 29 32 34 33 33 33 33 35 35 37 40 41 42 43 45 47 48 50 54 56 57 60 61 63 63 62 63
35 32 28 21 19 25 23 23 23 23 25 25 23 25 28 28 30 33 35 35 35 33 31 35 38 40 40 41 43 44 45 48 48 49 50 53 55 56 59 60 62 62 65 67
33 31 29 25 26 21 21 25 23 25 25 27 26 27 29 31 32 34 35 34 31 31 34 38 38 41 43 43 43 45 46 48 48 48 50 52 54 56 59 61 62 65 66 69
32 32 31 29 27 25 21 31 31 31 29 30 30 33 33 34 36 36 36 32 32 35 38 38 42 44 44 44 45 47 47 47 48 49 50 52 55 58 63 63 64 65 66 68
36 35 35 30 28 23 23 32 35 36 29 35 36 36 38 37 36 36 35 33 35 37 38 43 43 45 46 45 46 49 48 48 49 49 50 54 57 59 63 64 64 66 67 67
32 32 30 27 30 27 33 35 35 31 31 38 37 39 40 39 36 34 32 36 39 41 40 42 43 45 47 49 48 49 49 49 49 51 52 56 59 62 63 64 66 67 66 66
32 32 31 31 30 28 36 36 34 37 40 39 37 34 32 32 31 33 37 38 39 40 41 42 43 44 46 48 48 49 50 51 51 52 55 58 59 63 64 65 65 65 65 64
32 36 36 35 36 37 37 39 41 41 38 35 33 32 32 33 35 38 39 39 40 41 42 43 44 45 47 48 48 50 51 52 53 55 57 59 62 63 64 63 64 64 65 63
32 36 37 37 34 36 40 40 38 38 35 33 32 32 35 37 39 39 40 40 40 41 42 44 44 45 46 48 49 52 52 54 54 56 59 62 62 62 62 63 64 63 63 60
36 38 37 37 36 39 39 41 37 33 33 33 37 39 39 39 39 40 39 39 40 42 43 45 45 46 46 48 50 53 54 55 56 58 61 61 61 61 62 62 63 62 62 58
38 36 34 33 35 37 40 36 32 34 36 39 40 40 40 40 39 39 40 41 41 42 43 44 44 46 47 48 50 52 53 55 58 60 60 61 60 60 61 60 55 43 46 44

GFSCGP_sfc_dewp_063.txt.gz
Dewpoint
19 15 14 13 16 14 14 14 13 12 11 13 17 16 15 16 19 19 21 23 24 26 28 30 32 34 41 49 53 57 58 66 70 71 67 66 65 66 66 65 66 67 67 67
17 14 14 11 14 15 15 12 12 12 12 16 18 18 18 18 19 20 22 22 23 24 26 29 32 37 40 43 58 56 55 59 62 70 69 68 67 66 64 66 67 67 66 68
15 13 13 11 13 12 13 12 13 12 15 17 17 16 17 16 17 17 18 20 22 25 28 30 32 38 42 43 45 50 54 57 61 65 68 71 71 71 66 65 64 66 67 68
15 14 12 12 12 12 14 13 13 15 15 11 15 10 16 14 15 16 19 23 24 25 27 30 34 37 39 40 41 45 52 56 57 59 64 68 69 71 68 66 66 66 66 67
15 15 14 14 13 14 14 15 16 16 16 16 14 11 13 13 13 16 20 22 25 28 30 30 33 35 37 38 43 47 50 54 56 58 65 59 63 63 66 68 72 73 71 69
18 18 17 16 17 16 16 16 17 17 17 14 15 11 9 10 12 16 17 17 19 25 30 32 33 35 36 37 39 44 49 52 54 55 57 61 63 64 59 61 65 68 67 69
19 17 17 18 17 19 19 20 14 13 13 12 13 11 12 17 13 15 17 19 21 28 32 33 32 32 37 38 39 42 45 51 51 53 54 57 62 62 66 65 59 64 64 67
19 18 24 26 19 18 22 25 22 19 13 9 16 12 12 16 19 18 20 22 24 27 30 32 33 34 34 37 40 41 44 48 50 52 53 56 59 53 54 59 59 55 56 61
23 23 26 26 21 20 19 21 23 22 19 15 14 15 22 20 19 22 21 22 23 27 31 32 33 34 35 38 42 43 44 47 49 51 54 57 57 60 59 65 66 60 66 61
24 25 26 25 25 21 22 24 27 24 17 13 11 13 12 20 21 21 23 23 26 28 30 31 32 33 36 39 40 44 47 48 49 49 50 51 54 55 58 62 64 66 67 69
24 25 25 29 28 23 22 22 23 25 21 22 17 16 25 24 24 23 24 25 27 29 29 30 28 31 34 37 38 42 40 44 46 46 48 53 54 55 57 59 61 63 67 68
25 30 23 19 22 25 25 28 28 31 26 22 21 16 23 27 25 26 26 27 27 29 30 31 32 34 34 35 35 37 40 39 42 44 45 47 53 56 59 59 60 62 64 67
34 34 30 23 23 20 19 19 21 28 34 26 23 23 26 26 26 26 27 26 27 29 30 31 32 34 35 35 35 36 38 38 39 43 43 50 53 57 61 61 61 62 62 64
34 28 26 22 23 32 30 24 25 25 29 20 19 19 23 26 27 26 27 29 28 29 32 34 33 34 34 35 36 36 38 40 41 42 43 48 53 57 59 61 61 60 58 61
30 28 28 25 22 22 23 21 20 19 19 21 22 20 22 24 26 26 30 30 30 30 30 33 34 34 34 36 37 37 36 39 42 42 44 49 52 54 55 57 60 59 60 60
32 34 30 27 21 17 15 15 17 18 21 22 23 24 27 27 29 31 32 32 31 31 32 33 34 34 35 37 39 43 41 39 42 43 43 46 47 49 55 58 61 63 61 62
36 35 30 25 17 20 17 18 20 26 25 27 26 23 25 26 26 30 33 33 34 34 34 35 37 35 39 40 43 43 43 45 43 43 44 45 46 47 51 54 57 59 64 67
31 30 31 26 24 19 20 33 30 23 22 23 23 24 25 28 31 32 32 34 34 35 35 36 36 38 43 44 43 43 43 44 44 43 43 44 44 46 50 52 58 62 64 68
33 31 32 28 27 26 21 30 30 30 29 28 27 32 35 34 34 34 33 36 36 37 35 34 37 42 42 42 43 44 45 44 43 43 44 45 46 48 50 53 60 63 65 67
35 34 35 32 30 24 23 32 33 32 26 37 36 35 34 33 32 32 34 34 33 33 36 38 41 42 45 44 47 46 46 46 44 44 45 45 47 51 53 57 61 64 66 67
35 34 32 28 31 27 33 33 34 30 31 37 35 35 35 33 34 35 33 33 35 37 38 42 43 42 44 45 45 47 47 47 47 46 47 49 52 54 57 61 64 67 67 67
31 33 33 32 33 30 36 36 34 39 40 39 36 34 33 33 33 34 33 35 37 39 40 42 42 43 44 45 46 46 46 48 48 48 49 49 53 56 59 62 65 66 67 66
34 38 36 35 37 39 38 41 42 42 40 39 33 34 36 35 35 37 37 38 39 41 42 42 42 43 45 46 47 46 48 49 49 50 51 52 53 56 61 62 63 66 64 64
34 39 39 37 33 36 39 41 40 40 37 33 35 37 38 39 40 40 40 40 40 41 41 42 42 43 44 44 46 47 48 49 50 51 53 54 55 59 62 63 65 63 64 65
38 39 37 35 34 39 38 39 41 34 36 35 37 39 40 40 39 39 39 40 40 41 42 43 43 44 44 44 46 47 49 51 51 53 53 55 58 59 62 62 62 66 66 62
38 37 34 33 35 37 38 41 39 34 35 37 38 40 40 39 39 40 40 40 40 41 42 43 44 44 44 45 46 47 50 51 53 57 57 57 61 60 57 60 54 45 46 48

GFSCGP_sfc_dewp_069.txt.gz
Dewpoint
19 17 16 17 16 14 13 12 11 12 15 15 14 12 15 17 17 18 19 22 24 25 28 39 46 51 53 56 55 56 60 68 69 70 69 68 67 68 66 66 66 66 70 71
19 16 18 18 17 16 14 11 14 16 17 14 15 18 17 17 20 22 25 25 25 28 29 33 47 50 51 55 54 54 57 61 68 69 68 67 66 66 67 66 66 67 67 69
17 17 17 15 15 14 13 12 14 14 14 13 13 15 20 24 20 19 20 27 27 29 31 29 39 47 53 53 53 54 54 57 59 64 68 66 65 66 66 66 66 66 66 67
17 16 14 14 14 13 10 15 14 18 15 14 18 14 18 21 19 20 19 19 26 28 32 33 36 43 46 53 51 52 53 54 55 57 62 66 63 60 61 61 64 66 66 66
17 17 16 16 15 14 14 19 20 19 17 16 15 15 15 17 15 15 19 19 24 26 33 34 34 34 42 44 50 53 53 53 53 54 57 60 62 64 66 66 65 64 65 66
17 19 18 20 24 24 17 21 20 21 18 14 14 15 12 14 15 16 23 23 25 25 32 36 40 38 38 38 44 46 52 52 53 53 54 56 59 60 61 63 64 66 66 66
25 30 32 33 31 31 31 19 16 16 15 15 21 25 22 25 23 17 18 24 26 30 33 34 35 36 37 40 41 49 49 50 52 52 54 55 55 56 59 61 61 63 64 65
32 29 30 38 36 36 37 33 22 16 17 19 28 27 25 29 27 23 22 24 29 33 32 33 33 33 38 37 42 41 44 48 52 54 54 53 52 55 56 57 58 58 61 64
28 29 36 36 35 35 33 32 34 29 30 27 25 26 29 29 28 23 21 22 24 27 34 34 37 35 35 38 40 39 39 43 48 51 52 55 57 57 55 54 56 58 59 59
32 29 28 26 30 32 34 33 31 32 26 22 19 19 30 30 30 29 25 24 27 25 28 35 34 36 36 37 41 43 43 43 43 45 47 52 56 58 57 57 56 57 58 60
34 34 29 28 31 28 29 29 34 34 30 22 21 21 32 31 31 32 31 31 28 27 26 28 32 35 36 41 40 43 44 46 47 47 49 50 50 52 54 59 58 58 58 60
37 35 31 26 26 32 34 35 35 31 25 29 28 26 29 31 30 31 31 31 34 34 32 30 31 31 32 34 36 40 45 44 44 48 49 52 52 52 52 54 57 58 57 58
36 28 24 23 25 32 29 33 35 36 35 30 27 25 29 34 34 34 35 34 35 36 39 41 43 33 32 34 35 36 36 38 38 40 41 42 47 51 52 54 55 57 59 58
31 26 25 22 22 30 30 29 29 29 30 28 27 26 27 30 33 34 34 36 36 41 42 40 41 39 35 38 39 38 39 40 41 43 43 44 44 47 52 54 56 57 60 60
32 26 29 29 28 24 23 23 28 27 28 25 24 24 26 34 35 37 39 41 42 42 43 43 38 39 38 38 40 40 39 40 42 42 43 43 44 44 44 47 52 54 56 54
34 28 32 29 28 25 27 26 25 27 28 32 30 27 30 34 37 39 40 40 42 39 40 39 37 39 37 39 41 41 40 40 41 42 42 43 44 44 45 46 48 53 53 54
28 29 28 26 26 25 21 30 32 32 34 33 30 32 37 35 38 40 41 42 41 39 38 38 35 37 38 41 42 42 43 42 42 42 43 43 43 43 44 45 49 51 52 55
28 28 28 26 26 20 34 38 37 36 32 36 37 36 35 35 35 35 33 32 34 34 34 34 34 36 38 43 41 42 43 42 43 42 41 41 42 43 43 44 45 47 49 50
32 30 28 22 24 27 27 37 36 33 32 38 35 34 35 34 34 32 35 35 35 35 36 35 36 37 39 39 42 43 43 43 42 41 41 42 41 41 43 43 43 45 50 52
34 33 30 27 21 16 35 35 35 35 27 37 37 37 35 35 31 31 35 36 36 36 36 36 37 38 39 39 41 44 43 43 42 42 42 42 42 42 43 43 42 43 52 54
31 33 28 28 24 29 36 36 35 25 30 38 37 37 37 36 36 36 36 36 37 37 37 39 40 39 40 41 41 43 44 43 43 43 44 45 44 44 44 45 43 43 47 52
33 31 28 32 27 23 39 36 32 35 38 39 38 39 39 39 39 36 35 36 36 37 39 40 39 40 40 41 41 43 42 43 43 44 45 44 44 44 46 47 45 46 53 53
32 35 30 31 31 37 37 38 38 38 38 39 40 41 41 39 36 36 37 37 39 39 40 40 40 38 40 41 41 41 42 43 43 45 45 45 46 47 48 48 48 51 53 53
37 37 32 32 34 34 34 38 38 38 39 41 41 41 37 38 38 38 38 39 39 39 39 39 39 39 39 39 39 41 43 43 43 43 46 46 48 48 49 48 50 51 53 54
36 36 33 33 34 34 36 36 38 39 41 41 39 37 35 38 39 39 38 38 39 39 39 40 40 40 40 41 40 40 41 43 43 44 45 48 49 49 49 50 51 53 54 54
37 33 31 30 35 35 35 37 40 40 41 40 39 38 39 39 39 39 37 37 37 37 37 37 38 39 40 40 39 40 42 42 43 44 46 47 48 49 51 50 51 43 44 45

GFSCGP_sfc_dewp_072.txt.gz
Dewpoint
21 16 15 16 17 16 15 14 13 14 14 17 15 17 17 17 16 15 18 22 23 26 26 40 50 52 52 51 51 56 64 67 68 69 67 67 67 68 68 67 68 69 68 68
19 17 17 18 18 18 18 16 14 15 18 15 14 14 15 18 18 19 21 22 23 26 27 44 49 52 53 53 53 56 59 63 67 68 68 66 66 67 67 68 68 68 70 70
18 18 20 18 17 16 15 16 14 14 21 18 15 14 16 20 20 20 23 23 25 25 27 43 47 49 53 52 50 51 54 57 58 62 67 66 65 65 65 66 67 67 67 69
18 18 18 18 16 16 12 14 16 20 20 15 20 14 17 19 18 18 19 20 24 26 28 37 43 48 50 49 51 51 52 52 53 55 59 64 63 61 62 64 65 65 66 66
18 18 18 17 21 28 22 22 18 20 19 17 16 14 15 18 17 18 18 19 20 24 28 30 40 49 50 50 49 50 51 50 50 52 57 59 60 62 64 64 63 63 66 65
19 24 24 25 30 31 31 26 20 19 18 14 15 14 16 16 15 18 20 23 20 24 31 35 43 43 44 48 50 51 50 50 52 52 52 54 56 58 60 61 62 64 66 65
30 29 32 32 30 31 34 31 23 17 14 14 17 21 16 26 26 29 28 26 25 32 35 36 39 37 38 43 47 49 50 49 51 51 52 53 54 54 54 57 60 61 63 64
31 26 33 36 36 33 34 33 26 20 19 17 28 23 24 27 30 31 31 26 29 34 35 35 34 34 35 39 40 46 47 46 49 50 50 51 52 52 54 55 56 57 59 61
31 29 33 35 35 36 34 31 34 31 33 29 26 25 28 30 31 31 30 30 31 32 33 33 34 35 36 36 43 45 45 46 47 51 53 52 52 53 53 53 54 56 59 58
32 28 31 31 35 36 36 37 29 34 26 24 24 24 24 31 32 33 33 32 32 31 32 35 35 35 36 38 40 40 41 40 43 47 50 50 52 56 56 54 54 55 55 57
33 31 29 29 31 32 34 33 34 33 34 27 23 20 31 33 33 36 34 32 34 36 38 38 35 35 35 37 39 39 39 39 40 41 42 44 47 50 52 55 56 55 55 56
36 32 26 25 24 31 35 35 35 29 28 32 29 25 35 31 32 33 33 34 34 36 38 40 40 40 37 34 39 41 43 43 44 44 46 48 49 50 51 51 53 56 57 57
34 26 21 21 25 31 28 34 35 35 34 29 27 25 29 35 33 36 33 34 36 36 38 41 41 41 40 37 36 39 43 44 44 45 47 45 46 46 47 49 51 53 56 57
33 24 22 21 23 27 29 30 32 33 28 29 29 27 30 33 35 37 37 36 35 35 36 42 43 41 40 42 41 40 39 39 38 40 41 42 43 44 46 47 48 51 54 55
29 26 27 29 29 29 27 26 27 30 30 27 26 27 32 34 36 37 39 40 42 41 41 42 42 41 39 39 39 40 38 39 41 41 41 42 42 43 43 43 44 46 50 51
31 26 30 29 26 27 25 28 29 33 34 35 32 29 36 35 38 38 38 39 38 39 39 40 39 40 39 38 39 40 40 40 40 40 41 42 43 43 43 43 44 44 44 45
27 26 25 24 29 27 24 34 35 35 36 34 29 35 36 35 35 35 38 36 34 37 36 35 35 35 36 38 39 42 42 42 41 40 42 43 44 44 44 44 44 44 44 48
26 27 27 24 25 20 35 38 37 37 37 36 34 35 36 36 35 35 35 34 33 35 35 35 36 36 37 38 38 41 44 44 43 41 41 42 43 43 44 44 43 44 45 47
29 29 25 21 21 26 35 36 34 33 33 37 36 36 36 37 37 34 34 35 36 36 36 36 36 37 37 37 37 40 41 41 41 41 42 42 42 42 42 42 43 43 45 45
33 33 31 28 24 14 32 34 36 34 29 37 36 36 36 37 33 33 36 37 38 38 36 35 36 37 38 38 38 37 37 39 42 42 42 42 42 41 41 41 41 42 43 44
31 29 24 28 22 26 36 36 35 23 25 36 37 38 38 37 36 38 39 39 39 37 36 37 37 36 37 38 39 39 40 39 39 40 42 43 42 42 42 42 42 42 42 42
33 29 25 31 29 22 38 33 28 34 36 37 37 38 38 39 39 40 37 36 36 37 37 38 38 39 39 39 39 39 39 40 40 43 44 44 44 43 43 44 44 45 44 46
29 33 28 31 28 35 36 36 37 37 37 38 38 40 40 39 38 38 37 37 37 39 40 40 40 40 41 40 40 39 40 41 42 43 43 43 43 44 45 44 44 47 48 47
35 36 29 31 32 34 34 37 36 37 38 39 40 40 41 41 39 38 37 38 39 39 39 40 39 38 40 40 40 42 41 40 41 42 43 43 45 45 45 46 48 48 48 50
35 35 31 31 33 34 35 35 36 38 39 39 40 41 41 39 38 38 38 37 37 38 38 37 37 38 38 39 40 40 40 40 41 43 43 44 46 47 47 48 48 49 50 50
35 31 25 26 33 34 35 37 38 39 38 39 41 42 38 39 39 38 36 37 37 36 36 36 37 37 37 38 39 40 40 40 40 42 44 45 46 48 48 48 49 44 44 44

GFSCGP_sfc_dewp_075.txt.gz
Dewpoint
21 17 15 15 16 16 16 15 15 16 16 16 15 16 17 18 17 16 17 19 23 25 25 34 46 50 52 54 57 61 65 67 68 68 67 67 67 67 68 68 68 67 67 67
18 17 18 19 19 18 18 17 16 17 18 16 17 16 16 16 16 18 18 21 24 25 28 44 50 51 51 51 53 59 64 66 67 68 67 66 66 67 68 68 68 69 68 68
17 18 20 20 19 18 17 16 16 17 19 19 18 16 17 20 21 20 21 23 24 24 25 40 49 50 51 50 53 58 61 62 62 66 66 64 65 65 65 66 66 67 69 70
20 20 19 18 18 21 20 21 22 17 19 13 18 11 15 18 18 19 18 19 20 23 26 32 47 49 51 50 50 54 56 55 56 61 63 64 63 62 63 63 65 66 67 67
19 19 19 18 18 29 26 29 21 21 18 16 17 14 16 17 16 17 19 19 23 22 24 27 42 47 50 49 49 51 52 51 52 55 56 59 60 63 63 63 63 63 65 66
20 28 26 23 31 31 32 28 25 21 18 14 15 15 14 15 16 18 22 30 30 29 26 25 32 45 49 49 48 49 48 48 50 51 55 57 57 57 59 60 61 61 63 64
27 30 33 34 31 33 34 31 24 20 17 17 17 17 15 20 21 26 29 31 30 30 26 30 43 46 48 48 48 49 48 48 50 51 51 51 52 54 55 55 57 58 60 62
27 24 30 36 34 32 34 32 27 23 22 19 28 22 20 25 31 32 33 31 32 33 33 34 41 45 46 47 48 48 47 46 49 49 49 51 52 52 53 54 57 57 57 59
29 29 33 36 37 35 34 32 37 31 30 26 26 26 26 30 31 34 33 33 34 33 34 34 35 37 42 44 45 47 47 45 48 48 49 49 50 50 50 51 53 54 55 58
30 27 31 31 35 35 34 37 31 33 24 22 24 24 24 28 30 33 33 32 35 35 37 36 35 35 36 38 42 44 46 44 45 47 49 50 51 52 52 52 52 53 54 55
32 29 25 27 28 29 29 32 37 35 33 23 20 24 33 36 35 32 34 32 34 36 37 39 39 39 37 34 37 41 43 43 43 46 48 50 50 50 53 54 53 53 54 54
35 31 26 24 26 30 32 31 34 29 27 32 29 25 37 37 33 33 34 34 34 37 38 39 40 40 40 36 34 37 40 40 40 42 42 43 43 46 47 48 49 51 53 55
34 25 21 20 21 26 28 33 35 34 33 28 24 25 34 35 36 36 36 37 35 37 35 37 39 39 40 41 39 36 40 41 42 43 43 43 45 47 48 48 47 49 51 53
32 24 21 20 22 26 27 29 29 31 29 27 30 28 30 34 36 37 37 39 39 39 38 38 41 40 39 40 41 39 38 39 40 40 42 44 44 45 44 46 46 47 48 50
27 24 25 25 27 29 28 28 28 30 30 28 27 28 33 36 35 37 38 38 39 40 39 40 41 40 41 41 41 40 39 39 41 41 41 41 42 43 44 43 43 44 44 44
29 26 29 28 28 26 26 30 34 32 32 32 31 31 36 36 36 35 36 35 35 34 34 35 40 39 36 37 39 39 40 40 40 41 41 42 42 43 43 43 43 43 43 43
25 26 24 23 27 26 25 32 34 35 35 35 29 32 34 35 36 36 36 36 35 34 34 35 35 36 36 37 37 39 39 40 41 41 40 41 41 42 42 42 42 42 41 42
26 26 26 23 25 19 30 37 36 34 35 36 35 35 35 35 36 37 37 37 36 35 35 36 36 36 37 38 38 38 39 40 41 41 41 40 41 41 43 42 42 43 43 43
27 27 28 22 21 24 32 36 34 32 31 37 35 34 35 36 37 33 35 35 34 35 36 37 37 39 38 37 37 37 37 37 37 38 41 42 42 42 42 42 42 43 43 43
32 32 30 27 25 15 28 35 35 35 29 36 35 35 35 36 32 32 35 37 37 38 39 39 40 38 37 37 37 36 36 37 36 37 37 39 42 41 41 42 42 42 43 43
30 27 24 28 27 25 34 35 36 23 24 35 36 36 36 36 36 37 38 38 39 40 39 38 38 37 37 37 37 37 37 36 37 38 39 38 40 42 42 42 42 41 41 42
29 29 29 30 25 21 37 32 27 31 35 36 36 37 37 38 40 39 40 39 38 39 40 40 39 40 40 40 39 37 37 37 37 39 40 41 41 42 42 42 41 42 42 44
30 33 26 29 26 32 35 34 35 37 36 36 37 38 39 40 39 41 40 39 39 39 39 40 40 39 40 41 41 40 38 40 39 39 40 40 40 42 43 42 43 44 45 44
36 35 28 30 31 33 35 36 36 36 37 38 39 39 40 40 41 39 39 39 38 39 38 39 39 38 38 39 40 41 40 41 40 39 39 41 42 43 44 44 44 44 45 46
33 33 31 30 30 33 34 35 35 37 38 38 39 39 40 40 40 39 38 37 38 37 37 37 37 37 37 37 38 40 40 41 41 41 41 42 44 44 43 44 45 46 46 45
35 30 25 25 31 34 34 36 38 38 38 38 39 40 39 41 39 38 37 37 37 35 36 37 38 39 41 42 37 39 40 41 42 41 41 42 43 45 46 47 47 42 44 44

GFSCGP_sfc_dewp_078.txt.gz
Dewpoint
21 17 16 15 16 16 16 16 15 16 17 17 16 17 17 19 18 17 16 19 21 23 23 28 34 43 50 57 61 63 65 66 66 66 67 66 66 67 67 68 67 67 67 68
19 17 19 18 18 17 18 17 17 18 19 18 18 17 18 18 17 16 18 21 22 23 26 29 41 49 52 55 59 62 65 66 65 67 68 68 67 66 67 68 68 68 67 67
19 17 20 19 19 18 18 17 17 17 19 20 17 16 17 18 20 20 21 23 23 25 26 29 43 50 51 53 56 61 64 66 67 67 66 65 66 66 66 67 67 68 68 69
19 20 19 19 18 18 18 21 22 23 19 16 17 13 16 17 18 19 19 20 21 22 25 28 33 48 50 51 53 59 62 64 65 66 66 65 64 63 66 66 68 67 68 68
18 20 19 18 18 26 25 30 28 21 19 17 17 15 16 18 17 18 19 19 21 28 27 27 27 41 49 51 50 56 59 59 60 63 65 64 62 63 63 64 64 65 66 67
20 26 21 19 28 31 32 30 28 22 18 17 19 16 16 17 17 19 21 25 32 32 31 28 28 33 47 50 49 52 54 53 54 55 57 59 61 61 61 62 62 63 64 65
23 24 32 33 30 34 32 29 22 22 19 18 21 17 18 20 20 20 23 31 32 33 34 34 29 28 42 49 49 50 49 49 51 53 55 56 56 56 57 58 59 60 62 64
23 20 30 35 31 28 32 30 24 19 19 19 28 23 22 26 30 33 34 34 35 35 35 36 37 36 40 48 48 49 48 48 51 51 52 52 53 54 55 55 56 57 59 61
27 28 32 34 36 33 33 30 32 25 29 28 25 26 27 30 32 34 33 34 35 36 37 36 36 40 45 47 48 48 47 47 50 51 51 52 53 53 53 54 55 55 57 58
26 24 29 31 34 35 34 35 25 31 23 23 24 24 25 29 35 35 34 34 34 36 38 39 40 39 38 39 42 46 48 46 48 49 49 50 51 52 52 52 54 55 55 57
32 26 24 27 28 27 28 30 33 35 32 26 24 22 34 36 38 35 35 35 34 35 37 38 40 42 41 37 39 43 44 45 45 48 49 50 50 52 53 53 54 54 55 55
33 30 26 24 25 30 27 26 30 24 22 29 29 25 35 34 33 36 35 36 38 37 38 38 40 41 44 43 39 38 41 42 43 44 48 50 51 52 52 54 54 54 54 55
34 26 22 21 19 24 27 32 32 31 31 27 25 23 33 34 35 37 37 36 36 38 39 40 40 39 40 41 41 39 39 41 42 43 43 46 46 47 49 50 51 52 53 54
32 25 23 19 19 24 24 27 32 30 25 25 26 25 28 33 35 37 37 37 36 36 36 36 36 39 41 42 42 41 40 40 43 44 44 44 45 47 48 50 50 51 52 52
27 24 24 23 24 25 26 28 27 28 28 27 26 26 29 35 35 35 37 37 36 35 33 33 34 36 41 41 41 42 41 41 42 42 43 45 46 47 48 48 48 49 49 48
30 26 28 28 28 28 26 27 28 33 33 32 32 32 34 36 35 36 37 36 35 34 34 35 35 36 37 38 39 40 40 40 42 42 42 44 45 46 46 47 47 47 46 46
25 26 25 22 26 26 23 28 33 33 35 34 31 32 35 34 35 35 35 35 35 35 36 37 36 36 38 38 39 39 39 41 41 42 42 43 44 45 46 46 45 45 46 46
26 25 26 23 24 16 26 36 36 35 36 36 36 35 35 34 34 35 36 36 36 36 37 37 36 36 38 38 38 39 39 40 40 40 40 41 42 43 44 45 45 46 46 45
27 27 28 22 21 23 25 35 35 32 29 34 34 34 34 34 35 32 33 34 35 36 36 37 38 39 39 39 40 40 39 39 38 38 38 39 41 42 43 44 45 45 45 45
29 32 32 27 21 15 23 36 35 35 27 35 34 34 33 35 31 32 35 37 38 39 39 39 40 39 39 40 41 40 38 37 37 37 37 38 38 42 43 45 45 45 45 44
31 32 29 28 25 26 31 35 35 25 26 35 35 35 35 35 35 36 38 39 41 40 42 43 40 41 42 42 40 39 38 37 37 37 38 39 40 40 42 44 45 45 45 45
29 22 23 30 23 19 35 33 28 31 35 35 36 36 36 37 38 39 40 40 39 40 40 40 40 41 41 41 41 41 39 38 38 38 38 39 40 40 39 41 43 45 44 45
29 30 26 28 26 31 35 33 34 36 35 36 37 38 38 39 39 40 39 40 40 39 39 39 39 39 40 40 41 39 40 41 40 39 39 39 40 40 42 42 43 43 45 43
36 35 27 30 31 32 34 35 36 36 37 37 38 39 39 39 40 39 40 39 39 38 37 38 37 36 36 38 39 40 40 40 41 42 40 39 38 39 41 42 43 43 43 45
32 32 31 30 29 33 34 35 36 37 38 38 37 38 39 40 39 38 39 39 37 36 37 37 36 37 37 39 40 41 39 40 40 41 41 40 40 40 40 41 44 44 45 44
33 31 26 25 30 33 34 36 37 37 37 37 37 38 39 39 38 39 39 38 36 35 36 37 37 38 40 41 39 40 39 39 40 41 40 43 43 42 44 44 46 41 42 41